Year,Month,Day,Hour,Minute,Value (Times are PST for barometer in hPa)
2006,12,13,00,00,998.92
2006,12,13,00,01,999.08
2006,12,13,00,02,999.04
2006,12,13,00,03,998.87
2006,12,13,00,04,999.07
2006,12,13,00,05,999.25
2006,12,13,00,06,999.08
2006,12,13,00,07,998.95
2006,12,13,00,08,998.98
2006,12,13,00,09,998.77
2006,12,13,00,10,998.71
2006,12,13,00,11,998.63
2006,12,13,00,12,998.44
2006,12,13,00,13,998.51
2006,12,13,00,14,998.54
2006,12,13,00,15,998.51
2006,12,13,00,16,998.52
2006,12,13,00,17,998.38
2006,12,13,00,18,998.34
2006,12,13,00,19,998.30
2006,12,13,00,20,998.12
2006,12,13,00,21,998.31
2006,12,13,00,22,998.35
2006,12,13,00,23,998.51
2006,12,13,00,24,998.51
2006,12,13,00,25,998.44
2006,12,13,00,26,998.47
2006,12,13,00,27,998.38
2006,12,13,00,28,998.36
2006,12,13,00,29,998.14
2006,12,13,00,30,998.07
2006,12,13,00,31,998.11
2006,12,13,00,32,998.18
2006,12,13,00,33,998.45
2006,12,13,00,34,998.54
2006,12,13,00,35,998.51
2006,12,13,00,36,998.47
2006,12,13,00,37,998.31
2006,12,13,00,38,998.02
2006,12,13,00,39,997.87
2006,12,13,00,40,997.93
2006,12,13,00,41,997.82
2006,12,13,00,42,997.74
2006,12,13,00,43,997.90
2006,12,13,00,44,997.80
2006,12,13,00,45,997.73
2006,12,13,00,46,997.71
2006,12,13,00,47,997.83
2006,12,13,00,48,997.91
2006,12,13,00,49,998.00
2006,12,13,00,50,997.97
2006,12,13,00,51,997.97
2006,12,13,00,52,997.99
2006,12,13,00,53,997.90
2006,12,13,00,54,997.90
2006,12,13,00,55,997.94
2006,12,13,00,56,997.97
2006,12,13,00,57,998.00
2006,12,13,00,58,997.98
2006,12,13,00,59,998.10
2006,12,13,01,00,998.14
2006,12,13,01,01,998.10
2006,12,13,01,02,998.10
2006,12,13,01,03,998.15
2006,12,13,01,04,997.95
2006,12,13,01,05,997.79
2006,12,13,01,06,997.70
2006,12,13,01,07,997.66
2006,12,13,01,08,997.63
2006,12,13,01,09,997.60
2006,12,13,01,10,997.60
2006,12,13,01,11,997.60
2006,12,13,01,12,997.60
2006,12,13,01,13,997.63
2006,12,13,01,14,997.63
2006,12,13,01,15,997.60
2006,12,13,01,16,997.60
2006,12,13,01,17,997.56
2006,12,13,01,18,997.53
2006,12,13,01,19,997.43
2006,12,13,01,20,997.35
2006,12,13,01,21,997.30
2006,12,13,01,22,997.35
2006,12,13,01,23,997.22
2006,12,13,01,24,997.15
2006,12,13,01,25,997.02
2006,12,13,01,26,997.05
2006,12,13,01,27,997.08
2006,12,13,01,28,996.94
2006,12,13,01,29,996.90
2006,12,13,01,30,996.99
2006,12,13,01,31,997.02
2006,12,13,01,32,996.92
2006,12,13,01,33,996.94
2006,12,13,01,34,996.82
2006,12,13,01,35,996.83
2006,12,13,01,36,996.88
2006,12,13,01,37,996.78
2006,12,13,01,38,996.77
2006,12,13,01,39,996.66
2006,12,13,01,40,996.48
2006,12,13,01,41,996.51
2006,12,13,01,42,996.55
2006,12,13,01,43,996.52
2006,12,13,01,44,996.58
2006,12,13,01,45,996.61
2006,12,13,01,46,996.65
2006,12,13,01,47,996.70
2006,12,13,01,48,996.87
2006,12,13,01,49,997.03
2006,12,13,01,50,997.12
2006,12,13,01,51,997.16
2006,12,13,01,52,997.26
2006,12,13,01,53,997.22
2006,12,13,01,54,997.22
2006,12,13,01,55,997.19
2006,12,13,01,56,997.22
2006,12,13,01,57,997.18
2006,12,13,01,58,997.10
2006,12,13,01,59,996.95
2006,12,13,02,00,996.92
2006,12,13,02,01,996.95
2006,12,13,02,02,996.95
2006,12,13,02,03,996.92
2006,12,13,02,04,996.95
2006,12,13,02,05,996.98
2006,12,13,02,06,996.92
2006,12,13,02,07,996.92
2006,12,13,02,08,996.85
2006,12,13,02,09,996.83
2006,12,13,02,10,996.88
2006,12,13,02,11,996.75
2006,12,13,02,12,996.78
2006,12,13,02,13,996.82
2006,12,13,02,14,996.85
2006,12,13,02,15,996.86
2006,12,13,02,16,996.94
2006,12,13,02,17,996.89
2006,12,13,02,18,996.88
2006,12,13,02,19,996.82
2006,12,13,02,20,996.83
2006,12,13,02,21,996.89
2006,12,13,02,22,996.94
2006,12,13,02,23,996.80
2006,12,13,02,24,996.64
2006,12,13,02,25,996.51
2006,12,13,02,26,996.45
2006,12,13,02,27,996.41
2006,12,13,02,28,996.45
2006,12,13,02,29,996.51
2006,12,13,02,30,996.54
2006,12,13,02,31,996.48
2006,12,13,02,32,996.51
2006,12,13,02,33,996.55
2006,12,13,02,34,996.61
2006,12,13,02,35,996.58
2006,12,13,02,36,996.57
2006,12,13,02,37,996.51
2006,12,13,02,38,996.51
2006,12,13,02,39,996.51
2006,12,13,02,40,996.52
2006,12,13,02,41,996.66
2006,12,13,02,42,996.78
2006,12,13,02,43,996.85
2006,12,13,02,44,996.84
2006,12,13,02,45,996.75
2006,12,13,02,46,996.78
2006,12,13,02,47,996.75
2006,12,13,02,48,996.75
2006,12,13,02,49,996.75
2006,12,13,02,50,996.67
2006,12,13,02,51,996.58
2006,12,13,02,52,996.61
2006,12,13,02,53,996.65
2006,12,13,02,54,996.68
2006,12,13,02,55,996.65
2006,12,13,02,56,996.58
2006,12,13,02,57,996.55
2006,12,13,02,58,996.54
2006,12,13,02,59,996.48
2006,12,13,03,00,996.41
2006,12,13,03,01,996.34
2006,12,13,03,02,996.30
2006,12,13,03,03,996.24
2006,12,13,03,04,996.20
2006,12,13,03,05,996.05
2006,12,13,03,06,995.86
2006,12,13,03,07,995.66
2006,12,13,03,08,995.59
2006,12,13,03,09,995.31
2006,12,13,03,10,995.13
2006,12,13,03,11,995.20
2006,12,13,03,12,995.34
2006,12,13,03,13,995.47
2006,12,13,03,14,995.53
2006,12,13,03,15,995.56
2006,12,13,03,16,995.56
2006,12,13,03,17,995.63
2006,12,13,03,18,995.67
2006,12,13,03,19,995.69
2006,12,13,03,20,995.84
2006,12,13,03,21,995.94
2006,12,13,03,22,995.94
2006,12,13,03,23,995.97
2006,12,13,03,24,995.99
2006,12,13,03,25,995.76
2006,12,13,03,26,995.59
2006,12,13,03,27,995.51
2006,12,13,03,28,995.36
2006,12,13,03,29,995.40
2006,12,13,03,30,995.43
2006,12,13,03,31,995.40
2006,12,13,03,32,995.41
2006,12,13,03,33,995.47
2006,12,13,03,34,995.58
2006,12,13,03,35,995.74
2006,12,13,03,36,995.84
2006,12,13,03,37,995.95
2006,12,13,03,38,996.04
2006,12,13,03,39,996.08
2006,12,13,03,40,996.13
2006,12,13,03,41,996.01
2006,12,13,03,42,996.07
2006,12,13,03,43,996.09
2006,12,13,03,44,995.95
2006,12,13,03,45,996.05
2006,12,13,03,46,996.09
2006,12,13,03,47,995.93
2006,12,13,03,48,995.84
2006,12,13,03,49,995.79
2006,12,13,03,50,995.68
2006,12,13,03,51,995.76
2006,12,13,03,52,995.69
2006,12,13,03,53,995.56
2006,12,13,03,54,995.53
2006,12,13,03,55,995.46
2006,12,13,03,56,995.42
2006,12,13,03,57,995.28
2006,12,13,03,58,995.21
2006,12,13,03,59,995.02
2006,12,13,04,00,995.03
2006,12,13,04,01,995.20
2006,12,13,04,02,995.37
2006,12,13,04,03,995.50
2006,12,13,04,04,995.53
2006,12,13,04,05,995.53
2006,12,13,04,06,995.46
2006,12,13,04,07,995.46
2006,12,13,04,08,995.40
2006,12,13,04,09,995.36
2006,12,13,04,10,995.36
2006,12,13,04,11,995.35
2006,12,13,04,12,995.23
2006,12,13,04,13,995.22
2006,12,13,04,14,995.15
2006,12,13,04,15,995.02
2006,12,13,04,16,994.99
2006,12,13,04,17,994.96
2006,12,13,04,18,994.99
2006,12,13,04,19,995.07
2006,12,13,04,20,995.16
2006,12,13,04,21,995.24
2006,12,13,04,22,995.33
2006,12,13,04,23,995.36
2006,12,13,04,24,995.43
2006,12,13,04,25,995.47
2006,12,13,04,26,995.62
2006,12,13,04,27,995.56
2006,12,13,04,28,995.60
2006,12,13,04,29,995.64
2006,12,13,04,30,995.74
2006,12,13,04,31,995.80
2006,12,13,04,32,995.77
2006,12,13,04,33,995.73
2006,12,13,04,34,995.73
2006,12,13,04,35,995.73
2006,12,13,04,36,995.73
2006,12,13,04,37,995.77
2006,12,13,04,38,995.73
2006,12,13,04,39,995.70
2006,12,13,04,40,995.67
2006,12,13,04,41,995.63
2006,12,13,04,42,995.56
2006,12,13,04,43,995.56
2006,12,13,04,44,995.63
2006,12,13,04,45,995.67
2006,12,13,04,46,995.63
2006,12,13,04,47,995.60
2006,12,13,04,48,995.53
2006,12,13,04,49,995.56
2006,12,13,04,50,995.56
2006,12,13,04,51,995.50
2006,12,13,04,52,995.43
2006,12,13,04,53,995.36
2006,12,13,04,54,995.33
2006,12,13,04,55,995.23
2006,12,13,04,56,995.29
2006,12,13,04,57,995.16
2006,12,13,04,58,995.06
2006,12,13,04,59,994.96
2006,12,13,05,00,994.82
2006,12,13,05,01,994.53
2006,12,13,05,02,994.24
2006,12,13,05,03,994.14
2006,12,13,05,04,994.24
2006,12,13,05,05,994.35
2006,12,13,05,06,994.52
2006,12,13,05,07,994.63
2006,12,13,05,08,994.76
2006,12,13,05,09,994.85
2006,12,13,05,10,994.96
2006,12,13,05,11,995.06
2006,12,13,05,12,995.19
2006,12,13,05,13,995.12
2006,12,13,05,14,995.19
2006,12,13,05,15,995.16
2006,12,13,05,16,995.19
2006,12,13,05,17,995.36
2006,12,13,05,18,995.46
2006,12,13,05,19,995.53
2006,12,13,05,20,995.46
2006,12,13,05,21,995.50
2006,12,13,05,22,995.56
2006,12,13,05,23,995.47
2006,12,13,05,24,995.43
2006,12,13,05,25,995.45
2006,12,13,05,26,995.33
2006,12,13,05,27,995.33
2006,12,13,05,28,995.33
2006,12,13,05,29,995.33
2006,12,13,05,30,995.40
2006,12,13,05,31,995.53
2006,12,13,05,32,995.46
2006,12,13,05,33,995.43
2006,12,13,05,34,995.33
2006,12,13,05,35,995.40
2006,12,13,05,36,995.40
2006,12,13,05,37,995.40
2006,12,13,05,38,995.33
2006,12,13,05,39,995.29
2006,12,13,05,40,995.33
2006,12,13,05,41,995.36
2006,12,13,05,42,995.33
2006,12,13,05,43,995.36
2006,12,13,05,44,995.50
2006,12,13,05,45,995.53
2006,12,13,05,46,995.53
2006,12,13,05,47,995.46
2006,12,13,05,48,995.43
2006,12,13,05,49,995.46
2006,12,13,05,50,995.60
2006,12,13,05,51,995.67
2006,12,13,05,52,995.70
2006,12,13,05,53,995.70
2006,12,13,05,54,995.70
2006,12,13,05,55,995.84
2006,12,13,05,56,995.70
2006,12,13,05,57,995.56
2006,12,13,05,58,995.56
2006,12,13,05,59,995.56
2006,12,13,06,00,995.67
2006,12,13,06,01,995.63
2006,12,13,06,02,995.56
2006,12,13,06,03,995.53
2006,12,13,06,04,995.46
2006,12,13,06,05,995.56
2006,12,13,06,06,995.50
2006,12,13,06,07,995.63
2006,12,13,06,08,995.63
2006,12,13,06,09,995.67
2006,12,13,06,10,995.67
2006,12,13,06,11,995.67
2006,12,13,06,12,995.70
2006,12,13,06,13,995.67
2006,12,13,06,14,995.63
2006,12,13,06,15,995.63
2006,12,13,06,16,995.60
2006,12,13,06,17,995.63
2006,12,13,06,18,995.63
2006,12,13,06,19,995.60
2006,12,13,06,20,995.67
2006,12,13,06,21,995.63
2006,12,13,06,22,995.70
2006,12,13,06,23,995.73
2006,12,13,06,24,995.70
2006,12,13,06,25,995.70
2006,12,13,06,26,995.70
2006,12,13,06,27,995.70
2006,12,13,06,28,995.56
2006,12,13,06,29,995.60
2006,12,13,06,30,995.67
2006,12,13,06,31,995.60
2006,12,13,06,32,995.63
2006,12,13,06,33,995.60
2006,12,13,06,34,995.63
2006,12,13,06,35,995.60
2006,12,13,06,36,995.63
2006,12,13,06,37,995.70
2006,12,13,06,38,995.73
2006,12,13,06,39,995.84
2006,12,13,06,40,995.94
2006,12,13,06,41,995.90
2006,12,13,06,42,996.07
2006,12,13,06,43,996.11
2006,12,13,06,44,996.04
2006,12,13,06,45,996.01
2006,12,13,06,46,996.17
2006,12,13,06,47,996.24
2006,12,13,06,48,996.14
2006,12,13,06,49,996.24
2006,12,13,06,50,996.24
2006,12,13,06,51,996.34
2006,12,13,06,52,996.34
2006,12,13,06,53,996.45
2006,12,13,06,54,996.34
2006,12,13,06,55,996.38
2006,12,13,06,56,996.41
2006,12,13,06,57,996.41
2006,12,13,06,58,996.48
2006,12,13,06,59,996.48
2006,12,13,07,00,996.48
2006,12,13,07,01,996.41
2006,12,13,07,02,996.34
2006,12,13,07,03,996.45
2006,12,13,07,04,996.45
2006,12,13,07,05,996.38
2006,12,13,07,06,996.41
2006,12,13,07,07,996.34
2006,12,13,07,08,996.51
2006,12,13,07,09,996.65
2006,12,13,07,10,996.72
2006,12,13,07,11,996.75
2006,12,13,07,12,996.78
2006,12,13,07,13,996.85
2006,12,13,07,14,996.89
2006,12,13,07,15,996.85
2006,12,13,07,16,996.92
2006,12,13,07,17,996.95
2006,12,13,07,18,996.99
2006,12,13,07,19,996.95
2006,12,13,07,20,996.92
2006,12,13,07,21,996.99
2006,12,13,07,22,996.99
2006,12,13,07,23,996.89
2006,12,13,07,24,996.89
2006,12,13,07,25,996.95
2006,12,13,07,26,996.85
2006,12,13,07,27,997.05
2006,12,13,07,28,997.02
2006,12,13,07,29,997.09
2006,12,13,07,30,997.09
2006,12,13,07,31,997.05
2006,12,13,07,32,997.02
2006,12,13,07,33,997.05
2006,12,13,07,34,996.99
2006,12,13,07,35,996.99
2006,12,13,07,36,997.16
2006,12,13,07,37,997.05
2006,12,13,07,38,997.16
2006,12,13,07,39,997.19
2006,12,13,07,40,997.29
2006,12,13,07,41,997.29
2006,12,13,07,42,997.45
2006,12,13,07,43,997.39
2006,12,13,07,44,997.43
2006,12,13,07,45,997.36
2006,12,13,07,46,997.43
2006,12,13,07,47,997.56
2006,12,13,07,48,997.56
2006,12,13,07,49,997.60
2006,12,13,07,50,997.60
2006,12,13,07,51,997.72
2006,12,13,07,52,997.77
2006,12,13,07,53,997.66
2006,12,13,07,54,997.56
2006,12,13,07,55,997.60
2006,12,13,07,56,997.66
2006,12,13,07,57,997.60
2006,12,13,07,58,997.77
2006,12,13,07,59,998.00
2006,12,13,08,00,997.77
2006,12,13,08,01,997.70
2006,12,13,08,02,997.60
2006,12,13,08,03,997.70
2006,12,13,08,04,997.77
2006,12,13,08,05,997.86
2006,12,13,08,06,997.83
2006,12,13,08,07,997.87
2006,12,13,08,08,997.97
2006,12,13,08,09,998.07
2006,12,13,08,10,998.00
2006,12,13,08,11,998.07
2006,12,13,08,12,997.97
2006,12,13,08,13,997.94
2006,12,13,08,14,998.04
2006,12,13,08,15,997.94
2006,12,13,08,16,997.94
2006,12,13,08,17,998.00
2006,12,13,08,18,997.94
2006,12,13,08,19,997.90
2006,12,13,08,20,997.87
2006,12,13,08,21,998.17
2006,12,13,08,22,998.10
2006,12,13,08,23,998.21
2006,12,13,08,24,998.10
2006,12,13,08,25,998.07
2006,12,13,08,26,998.27
2006,12,13,08,27,998.07
2006,12,13,08,28,998.07
2006,12,13,08,29,998.16
2006,12,13,08,30,998.44
2006,12,13,08,31,998.31
2006,12,13,08,32,998.27
2006,12,13,08,33,998.51
2006,12,13,08,34,998.58
2006,12,13,08,35,998.54
2006,12,13,08,36,998.71
2006,12,13,08,37,998.82
2006,12,13,08,38,998.61
2006,12,13,08,39,998.71
2006,12,13,08,40,998.75
2006,12,13,08,41,998.61
2006,12,13,08,42,998.68
2006,12,13,08,43,998.52
2006,12,13,08,44,998.65
2006,12,13,08,45,998.65
2006,12,13,08,46,998.51
2006,12,13,08,47,998.48
2006,12,13,08,48,998.58
2006,12,13,08,49,998.58
2006,12,13,08,50,998.54
2006,12,13,08,51,998.71
2006,12,13,08,52,998.78
2006,12,13,08,53,998.88
2006,12,13,08,54,998.88
2006,12,13,08,55,998.85
2006,12,13,08,56,998.95
2006,12,13,08,57,998.85
2006,12,13,08,58,998.82
2006,12,13,08,59,998.82
2006,12,13,09,00,998.88
2006,12,13,09,01,998.95
2006,12,13,09,02,999.02
2006,12,13,09,03,999.09
2006,12,13,09,04,999.05
2006,12,13,09,05,999.29
2006,12,13,09,06,999.12
2006,12,13,09,07,999.29
2006,12,13,09,08,999.36
2006,12,13,09,09,999.19
2006,12,13,09,10,999.15
2006,12,13,09,11,999.15
2006,12,13,09,12,999.29
2006,12,13,09,13,999.19
2006,12,13,09,14,999.32
2006,12,13,09,15,999.29
2006,12,13,09,16,999.53
2006,12,13,09,17,999.63
2006,12,13,09,18,999.76
2006,12,13,09,19,999.53
2006,12,13,09,20,999.39
2006,12,13,09,21,999.46
2006,12,13,09,22,999.53
2006,12,13,09,23,999.66
2006,12,13,09,24,999.53
2006,12,13,09,25,999.43
2006,12,13,09,26,999.66
2006,12,13,09,27,999.56
2006,12,13,09,28,999.72
2006,12,13,09,29,999.80
2006,12,13,09,30,999.76
2006,12,13,09,31,999.80
2006,12,13,09,32,999.70
2006,12,13,09,33,999.70
2006,12,13,09,34,999.70
2006,12,13,09,35,999.63
2006,12,13,09,36,999.59
2006,12,13,09,37,999.76
2006,12,13,09,38,999.76
2006,12,13,09,39,999.73
2006,12,13,09,40,999.83
2006,12,13,09,41,999.80
2006,12,13,09,42,999.73
2006,12,13,09,43,999.80
2006,12,13,09,44,999.90
2006,12,13,09,45,999.80
2006,12,13,09,46,1000.00
2006,12,13,09,47,1000.00
2006,12,13,09,48,1000.10
2006,12,13,09,49,1000.07
2006,12,13,09,50,1000.10
2006,12,13,09,51,1000.34
2006,12,13,09,52,1000.25
2006,12,13,09,53,999.90
2006,12,13,09,54,1000.31
2006,12,13,09,55,1000.37
2006,12,13,09,56,1000.37
2006,12,13,09,57,1000.51
2006,12,13,09,58,1000.51
2006,12,13,09,59,1000.78
2006,12,13,10,00,1000.88
2006,12,13,10,01,1000.86
2006,12,13,10,02,1001.12
2006,12,13,10,03,1001.12
2006,12,13,10,04,1001.08
2006,12,13,10,05,1001.36
2006,12,13,10,06,1001.36
2006,12,13,10,07,1001.59
2006,12,13,10,08,1001.46
2006,12,13,10,09,1001.76
2006,12,13,10,10,1001.57
2006,12,13,10,11,1001.69
2006,12,13,10,12,1001.49
2006,12,13,10,13,1001.32
2006,12,13,10,14,1001.12
2006,12,13,10,15,1001.03
2006,12,13,10,16,1000.92
2006,12,13,10,17,1001.12
2006,12,13,10,18,1001.14
2006,12,13,10,19,1001.46
2006,12,13,10,20,1001.49
2006,12,13,10,21,1001.73
2006,12,13,10,22,1001.90
2006,12,13,10,23,1001.93
2006,12,13,10,24,1001.90
2006,12,13,10,25,1001.97
2006,12,13,10,26,1002.10
2006,12,13,10,27,1002.17
2006,12,13,10,28,1001.80
2006,12,13,10,29,1001.80
2006,12,13,10,30,1001.63
2006,12,13,10,31,1001.56
2006,12,13,10,32,1001.63
2006,12,13,10,33,1001.52
2006,12,13,10,34,1001.66
2006,12,13,10,35,1001.69
2006,12,13,10,36,1001.63
2006,12,13,10,37,1001.73
2006,12,13,10,38,1001.73
2006,12,13,10,39,1001.69
2006,12,13,10,40,1001.52
2006,12,13,10,41,1001.73
2006,12,13,10,42,1001.59
2006,12,13,10,43,1001.59
2006,12,13,10,44,1001.36
2006,12,13,10,45,1001.62
2006,12,13,10,46,1001.66
2006,12,13,10,47,1001.56
2006,12,13,10,48,1001.49
2006,12,13,10,49,1001.49
2006,12,13,10,50,1001.52
2006,12,13,10,51,1001.42
2006,12,13,10,52,1001.39
2006,12,13,10,53,1001.52
2006,12,13,10,54,1001.49
2006,12,13,10,55,1001.59
2006,12,13,10,56,1001.66
2006,12,13,10,57,1001.83
2006,12,13,10,58,1001.83
2006,12,13,10,59,1001.76
2006,12,13,11,00,1001.86
2006,12,13,11,01,1002.00
2006,12,13,11,02,1002.24
2006,12,13,11,03,1002.24
2006,12,13,11,04,1002.40
2006,12,13,11,05,1002.41
2006,12,13,11,06,1002.71
2006,12,13,11,07,1002.61
2006,12,13,11,08,1002.64
2006,12,13,11,09,1002.88
2006,12,13,11,10,1003.05
2006,12,13,11,11,1003.15
2006,12,13,11,12,1003.39
2006,12,13,11,13,1003.46
2006,12,13,11,14,1003.46
2006,12,13,11,15,1003.52
2006,12,13,11,16,1003.62
2006,12,13,11,17,1003.49
2006,12,13,11,18,1003.42
2006,12,13,11,19,1003.39
2006,12,13,11,20,1003.35
2006,12,13,11,21,1003.29
2006,12,13,11,22,1003.25
2006,12,13,11,23,1003.12
2006,12,13,11,24,1003.18
2006,12,13,11,25,1003.22
2006,12,13,11,26,1003.15
2006,12,13,11,27,1003.15
2006,12,13,11,28,1003.01
2006,12,13,11,29,1002.95
2006,12,13,11,30,1003.05
2006,12,13,11,31,1003.22
2006,12,13,11,32,1003.08
2006,12,13,11,33,1003.29
2006,12,13,11,34,1003.25
2006,12,13,11,35,1003.35
2006,12,13,11,36,1003.49
2006,12,13,11,37,1003.42
2006,12,13,11,38,1003.62
2006,12,13,11,39,1003.62
2006,12,13,11,40,1003.83
2006,12,13,11,41,1003.96
2006,12,13,11,42,1003.93
2006,12,13,11,43,1004.00
2006,12,13,11,44,1004.03
2006,12,13,11,45,1004.06
2006,12,13,11,46,1004.13
2006,12,13,11,47,1004.13
2006,12,13,11,48,1004.17
2006,12,13,11,49,1004.10
2006,12,13,11,50,1004.20
2006,12,13,11,51,1004.27
2006,12,13,11,52,1004.30
2006,12,13,11,53,1004.21
2006,12,13,11,54,1004.13
2006,12,13,11,55,1004.06
2006,12,13,11,56,1003.96
2006,12,13,11,57,1003.93
2006,12,13,11,58,1003.79
2006,12,13,11,59,1003.86
2006,12,13,12,00,1003.93
2006,12,13,12,01,1003.93
2006,12,13,12,02,1004.00
2006,12,13,12,03,1004.06
2006,12,13,12,04,1004.06
2006,12,13,12,05,1004.23
2006,12,13,12,06,1004.30
2006,12,13,12,07,1004.30
2006,12,13,12,08,1004.30
2006,12,13,12,09,1004.47
2006,12,13,12,10,1004.44
2006,12,13,12,11,1004.34
2006,12,13,12,12,1004.40
2006,12,13,12,13,1004.40
2006,12,13,12,14,1004.47
2006,12,13,12,15,1004.34
2006,12,13,12,16,1004.50
2006,12,13,12,17,1004.47
2006,12,13,12,18,1004.34
2006,12,13,12,19,1004.27
2006,12,13,12,20,1004.23
2006,12,13,12,21,1004.34
2006,12,13,12,22,1004.40
2006,12,13,12,23,1004.34
2006,12,13,12,24,1004.37
2006,12,13,12,25,1004.40
2006,12,13,12,26,1004.44
2006,12,13,12,27,1004.40
2006,12,13,12,28,1004.64
2006,12,13,12,29,1004.47
2006,12,13,12,30,1004.54
2006,12,13,12,31,1004.64
2006,12,13,12,32,1004.71
2006,12,13,12,33,1004.57
2006,12,13,12,34,1004.81
2006,12,13,12,35,1004.84
2006,12,13,12,36,1004.91
2006,12,13,12,37,1005.07
2006,12,13,12,38,1005.28
2006,12,13,12,39,1005.35
2006,12,13,12,40,1005.49
2006,12,13,12,41,1005.59
2006,12,13,12,42,1005.59
2006,12,13,12,43,1005.55
2006,12,13,12,44,1005.62
2006,12,13,12,45,1005.59
2006,12,13,12,46,1005.59
2006,12,13,12,47,1005.66
2006,12,13,12,48,1005.72
2006,12,13,12,49,1005.79
2006,12,13,12,50,1005.92
2006,12,13,12,51,1005.86
2006,12,13,12,52,1005.76
2006,12,13,12,53,1005.79
2006,12,13,12,54,1005.83
2006,12,13,12,55,1006.03
2006,12,13,12,56,1006.06
2006,12,13,12,57,1006.13
2006,12,13,12,58,1006.23
2006,12,13,12,59,1006.40
2006,12,13,13,00,1006.37
2006,12,13,13,01,1006.30
2006,12,13,13,02,1006.23
2006,12,13,13,03,1006.27
2006,12,13,13,04,1006.37
2006,12,13,13,05,1006.33
2006,12,13,13,06,1006.40
2006,12,13,13,07,1006.30
2006,12,13,13,08,1006.37
2006,12,13,13,09,1006.33
2006,12,13,13,10,1006.30
2006,12,13,13,11,1006.37
2006,12,13,13,12,1006.30
2006,12,13,13,13,1006.37
2006,12,13,13,14,1006.37
2006,12,13,13,15,1006.33
2006,12,13,13,16,1006.47
2006,12,13,13,17,1006.47
2006,12,13,13,18,1006.47
2006,12,13,13,19,1006.57
2006,12,13,13,20,1006.57
2006,12,13,13,21,1006.60
2006,12,13,13,22,1006.71
2006,12,13,13,23,1006.77
2006,12,13,13,24,1006.91
2006,12,13,13,25,1007.01
2006,12,13,13,26,1007.08
2006,12,13,13,27,1007.01
2006,12,13,13,28,1007.08
2006,12,13,13,29,1007.15
2006,12,13,13,30,1007.25
2006,12,13,13,31,1007.32
2006,12,13,13,32,1007.38
2006,12,13,13,33,1007.48
2006,12,13,13,34,1007.55
2006,12,13,13,35,1007.69
2006,12,13,13,36,1007.76
2006,12,13,13,37,1007.79
2006,12,13,13,38,1007.93
2006,12,13,13,39,1007.93
2006,12,13,13,40,1007.96
2006,12,13,13,41,1007.96
2006,12,13,13,42,1007.89
2006,12,13,13,43,1007.69
2006,12,13,13,44,1007.62
2006,12,13,13,45,1007.62
2006,12,13,13,46,1007.62
2006,12,13,13,47,1007.38
2006,12,13,13,48,1007.42
2006,12,13,13,49,1007.32
2006,12,13,13,50,1007.32
2006,12,13,13,51,1007.32
2006,12,13,13,52,1007.32
2006,12,13,13,53,1007.42
2006,12,13,13,54,1007.42
2006,12,13,13,55,1007.48
2006,12,13,13,56,1007.52
2006,12,13,13,57,1007.55
2006,12,13,13,58,1007.55
2006,12,13,13,59,1007.52
2006,12,13,14,00,1007.48
2006,12,13,14,01,1007.52
2006,12,13,14,02,1007.48
2006,12,13,14,03,1007.52
2006,12,13,14,04,1007.48
2006,12,13,14,05,1007.48
2006,12,13,14,06,1007.62
2006,12,13,14,07,1007.62
2006,12,13,14,08,1007.52
2006,12,13,14,09,1007.69
2006,12,13,14,10,1007.56
2006,12,13,14,11,1007.42
2006,12,13,14,12,1007.38
2006,12,13,14,13,1007.52
2006,12,13,14,14,1007.52
2006,12,13,14,15,1007.48
2006,12,13,14,16,1007.35
2006,12,13,14,17,1007.38
2006,12,13,14,18,1007.52
2006,12,13,14,19,1007.52
2006,12,13,14,20,1007.52
2006,12,13,14,21,1007.45
2006,12,13,14,22,1007.65
2006,12,13,14,23,1007.76
2006,12,13,14,24,1007.89
2006,12,13,14,25,1007.96
2006,12,13,14,26,1007.96
2006,12,13,14,27,1008.06
2006,12,13,14,28,1008.13
2006,12,13,14,29,1008.20
2006,12,13,14,30,1008.26
2006,12,13,14,31,1008.23
2006,12,13,14,32,1008.30
2006,12,13,14,33,1008.30
2006,12,13,14,34,1008.23
2006,12,13,14,35,1008.20
2006,12,13,14,36,1008.13
2006,12,13,14,37,1008.23
2006,12,13,14,38,1008.30
2006,12,13,14,39,1008.33
2006,12,13,14,40,1008.40
2006,12,13,14,41,1008.50
2006,12,13,14,42,1008.50
2006,12,13,14,43,1008.57
2006,12,13,14,44,1008.50
2006,12,13,14,45,1008.53
2006,12,13,14,46,1008.70
2006,12,13,14,47,1008.81
2006,12,13,14,48,1008.93
2006,12,13,14,49,1009.01
2006,12,13,14,50,1009.08
2006,12,13,14,51,1009.25
2006,12,13,14,52,1009.35
2006,12,13,14,53,1009.28
2006,12,13,14,54,1009.31
2006,12,13,14,55,1009.31
2006,12,13,14,56,1009.18
2006,12,13,14,57,1009.14
2006,12,13,14,58,1009.18
2006,12,13,14,59,1009.11
2006,12,13,15,00,1009.14
2006,12,13,15,01,1009.11
2006,12,13,15,02,1009.08
2006,12,13,15,03,1009.08
2006,12,13,15,04,1009.14
2006,12,13,15,05,1009.08
2006,12,13,15,06,1009.11
2006,12,13,15,07,1009.14
2006,12,13,15,08,1009.25
2006,12,13,15,09,1009.28
2006,12,13,15,10,1009.31
2006,12,13,15,11,1009.38
2006,12,13,15,12,1009.45
2006,12,13,15,13,1009.45
2006,12,13,15,14,1009.48
2006,12,13,15,15,1009.52
2006,12,13,15,16,1009.62
2006,12,13,15,17,1009.69
2006,12,13,15,18,1009.65
2006,12,13,15,19,1009.69
2006,12,13,15,20,1009.89
2006,12,13,15,21,1009.92
2006,12,13,15,22,1009.96
2006,12,13,15,23,1009.92
2006,12,13,15,24,1010.09
2006,12,13,15,25,1010.13
2006,12,13,15,26,1010.19
2006,12,13,15,27,1010.33
2006,12,13,15,28,1010.36
2006,12,13,15,29,1010.33
2006,12,13,15,30,1010.36
2006,12,13,15,31,1010.52
2006,12,13,15,32,1010.57
2006,12,13,15,33,1010.63
2006,12,13,15,34,1010.57
2006,12,13,15,35,1010.43
2006,12,13,15,36,1010.43
2006,12,13,15,37,1010.33
2006,12,13,15,38,1010.42
2006,12,13,15,39,1010.36
2006,12,13,15,40,1010.40
2006,12,13,15,41,1010.06
2006,12,13,15,42,1010.25
2006,12,13,15,43,1010.19
2006,12,13,15,44,1010.26
2006,12,13,15,45,1010.19
2006,12,13,15,46,1010.16
2006,12,13,15,47,1010.23
2006,12,13,15,48,1010.26
2006,12,13,15,49,1010.23
2006,12,13,15,50,1010.23
2006,12,13,15,51,1010.06
2006,12,13,15,52,1010.06
2006,12,13,15,53,1010.09
2006,12,13,15,54,1010.06
2006,12,13,15,55,1010.09
2006,12,13,15,56,1010.16
2006,12,13,15,57,1010.09
2006,12,13,15,58,1010.30
2006,12,13,15,59,1010.40
2006,12,13,16,00,1010.53
2006,12,13,16,01,1010.46
2006,12,13,16,02,1010.46
2006,12,13,16,03,1010.53
2006,12,13,16,04,1010.57
2006,12,13,16,05,1010.44
2006,12,13,16,06,1010.53
2006,12,13,16,07,1010.60
2006,12,13,16,08,1010.74
2006,12,13,16,09,1010.74
2006,12,13,16,10,1010.64
2006,12,13,16,11,1010.63
2006,12,13,16,12,1010.74
2006,12,13,16,13,1010.77
2006,12,13,16,14,1010.91
2006,12,13,16,15,1011.01
2006,12,13,16,16,1011.01
2006,12,13,16,17,1010.87
2006,12,13,16,18,1010.84
2006,12,13,16,19,1010.80